COSMOS 2004

导读 | 豆包AI

**COSMOS 2004卫星摘要** COSMOS 2004是独联体(CIS)在1989年2月22日发射的卫星,隶属于苏联/俄罗斯“宇宙”(COSMOS)卫星系列。该系列涵盖多种军用航天任务,包括侦察、预警和技术试验,因保密性,具体功能未公开。作为冷战末期的航天产物,它体现了苏联航天工业的技术水平,现在已经结束任务陨落,是该系列冷战末期的典型成员。

基本信息
目录编号:
19826
目录名称:
COSMOS 2004
国际标识:
1989-017A
轨道中心:
EARTH
卫星名称:
COSMOS 2004
卫星全名:
--
卫星状态:
在轨 (已飞行13533 天)
发射日期:
1989-02-22 UTC
国别 :
俄罗斯(独联体) (CIS)
星等 :
--
轨道信息
数据来源 国际轨道数据
星历时间: 2026-03-13T15:21:02+0800
16小时前
查看轨道信息
半长轴: 7368.588km
偏心率: 0.0030537
轨道倾角: 82.957°
近地点辐角 154.177°
升交点赤经 353.968°
平近点角 328.284°
近地点: 967.949km
远地点: 1012.953km
周期: 104.915分钟
每日圈数: 13.725443
详细信息
使用方式:
暂无
2D轨道图
3D轨道图
轨道高度分析图
轨道倾角分析图
轨道综合分析图
查看轨道综合分析图